Theta_e
285 286 287 289 288 289 289 289 287 284 286 281 281 284 287 287 289 290 289 295 299 300 299 299 299 299 300 301 302 302 302 301 300 300 300 300 300 300
285 284 284 285 286 287 289 289 287 287 284 284 282 283 286 287 288 288 288 290 296 298 298 298 298 298 299 299 300 300 300 301 300 299 299 299 299 299
282 283 283 284 284 285 283 286 288 287 285 288 282 282 282 285 285 287 286 286 288 295 297 297 297 297 297 298 299 299 299 299 299 298 298 298 298 298
281 282 282 285 282 283 283 283 283 285 286 285 287 280 282 284 286 284 284 285 284 290 294 296 296 296 296 297 297 297 297 297 297 297 296 296 297 297
281 281 281 282 282 284 284 284 284 285 284 284 285 280 281 282 281 282 283 283 282 286 292 294 295 295 295 296 296 296 296 295 295 295 294 295 295 295
281 281 282 281 282 282 284 285 285 284 284 283 284 284 280 281 283 282 280 281 281 282 286 289 292 294 295 295 295 294 294 294 294 293 292 293 293 293
279 280 281 282 284 285 283 284 285 285 284 283 283 283 280 278 281 282 282 281 281 282 281 283 285 287 289 293 292 293 293 293 292 292 291 291 292 292
277 278 279 280 282 285 286 287 287 284 284 284 284 283 283 281 283 283 281 280 279 282 280 280 282 283 285 288 292 293 293 292 292 291 291 291 291 291
276 277 277 278 280 280 283 285 285 287 290 286 284 284 284 285 283 282 281 282 282 280 281 279 281 281 284 285 291 293 293 293 292 291 290 291 290 290
273 275 276 276 277 277 278 278 280 282 283 285 286 287 287 287 284 284 284 283 284 280 281 279 281 279 282 283 289 291 293 293 292 291 290 290 290 289
271 272 272 273 276 278 276 275 276 278 284 287 288 289 291 291 290 285 282 281 280 281 279 279 278 279 279 280 282 289 292 292 292 290 290 290 290 289
270 271 273 273 276 277 275 274 273 275 278 280 282 284 288 288 290 288 284 281 281 280 280 278 278 278 276 279 280 282 287 291 291 290 290 290 289 285
267 269 270 273 274 275 276 274 275 278 279 280 281 281 282 284 285 288 287 284 281 281 280 280 281 278 278 275 279 280 284 285 286 287 289 289 289 286
268 269 269 272 274 275 274 275 277 278 277 279 280 280 281 281 283 285 286 285 286 284 284 282 279 279 278 274 275 279 282 284 285 284 285 288 289 288
269 270 274 275 275 274 274 274 273 273 274 275 278 280 281 283 283 283 284 286 285 285 283 283 282 280 280 278 274 276 278 281 283 283 283 283 283 283
271 269 271 273 274 274 272 272 272 272 272 273 277 281 283 282 282 283 282 283 282 281 283 283 282 282 279 279 276 275 278 276 280 281 281 281 281 280
274 273 269 265 265 265 266 269 271 271 271 273 277 279 281 281 281 281 281 281 279 279 276 278 281 282 280 279 275 276 276 277 278 278 277 276 276 277
273 271 270 270 269 268 267 267 268 269 271 273 278 278 278 280 280 281 280 280 276 278 275 273 275 273 272 273 278 275 275 275 276 277 276 274 273 276
267 266 267 268 268 268 268 267 268 270 272 273 275 275 277 280 278 278 277 278 276 277 274 272 274 274 271 270 271 278 274 273 274 274 274 274 272 273
263 264 264 265 267 268 268 267 268 270 271 273 276 278 279 278 277 277 276 276 275 275 272 272 273 274 274 272 268 272 278 273 273 272 272 272 273 276
261 262 263 263 265 266 268 268 268 268 270 272 276 277 279 278 277 277 277 275 275 273 271 270 273 276 275 272 269 269 273 277 275 273 272 270 268 268
260 260 261 263 266 268 270 270 270 269 270 272 275 276 277 277 277 276 275 274 274 272 272 271 272 271 271 271 269 269 269 272 275 275 274 272 268 266
259 260 260 262 263 265 267 271 272 273 274 275 276 276 276 275 276 276 274 274 274 271 270 269 269 270 270 271 269 268 268 268 268 267 268 273 273 272
Wind_Speed
6 6 7 8 5 5 7 8 11 13 15 5 5 8 9 7 11 11 11 18 23 23 22 22 21 21 20 20 19 17 16 16 15 14 13 12 11 11
5 6 6 5 6 5 7 7 8 12 16 5 7 7 9 9 10 12 12 15 22 23 23 23 23 22 22 21 20 19 18 18 17 15 14 12 12 11
7 6 7 7 6 5 4 6 8 8 14 11 4 6 6 10 7 11 9 11 11 23 23 24 24 23 24 23 22 21 20 19 18 17 16 15 14 12
12 9 8 6 7 6 5 7 7 8 10 17 9 5 9 9 12 12 10 10 10 19 26 25 25 24 24 24 23 22 21 20 19 18 18 17 16 14
11 12 12 8 9 7 8 8 7 7 8 11 12 4 6 3 3 5 9 9 7 16 26 26 25 26 25 25 25 23 21 21 21 19 18 18 17 16
13 13 13 12 12 10 9 10 9 8 9 9 11 9 5 4 6 8 7 7 9 9 17 17 20 23 27 27 26 23 21 22 21 20 19 18 18 17
16 15 14 15 20 19 11 11 10 10 9 10 11 9 7 4 9 6 11 7 10 9 10 11 10 11 14 24 20 23 24 25 25 23 22 21 19 17
17 16 15 18 19 25 26 28 22 12 14 11 11 13 16 10 8 9 9 8 8 9 9 11 11 13 12 13 23 27 28 27 25 24 23 23 21 20
18 17 16 13 15 15 19 26 27 28 29 19 18 17 16 11 10 12 12 14 13 4 13 13 12 16 12 13 28 29 29 28 27 26 25 25 23 21
19 19 18 18 17 18 18 19 18 17 19 16 20 22 17 14 10 13 14 15 11 4 14 10 11 15 11 11 29 31 29 29 29 28 27 27 25 24
17 18 18 20 26 31 23 21 21 21 21 28 31 32 29 28 21 7 11 10 12 11 11 3 4 8 9 12 12 32 30 31 29 30 29 28 27 25
15 17 23 24 31 32 22 20 21 22 18 18 17 21 27 23 29 17 12 15 14 10 9 11 6 5 3 7 10 11 15 29 29 30 29 29 28 11
13 12 11 26 32 34 35 20 20 20 23 20 17 14 14 14 15 16 16 15 14 16 8 12 10 7 3 2 7 12 14 15 15 20 30 30 30 20
15 13 14 28 31 32 26 32 37 33 16 15 15 15 14 15 15 15 17 15 16 19 9 15 4 10 9 4 5 7 11 13 14 14 14 22 30 29
15 22 35 35 36 29 28 32 30 16 14 16 16 14 14 13 14 13 14 15 16 17 8 13 12 8 8 10 5 5 13 12 12 13 13 14 15 14
25 20 24 30 32 28 19 18 13 14 15 16 17 13 12 12 13 11 10 10 10 10 13 14 14 13 11 10 5 6 11 11 14 12 12 11 11 11
21 13 10 11 12 12 12 13 11 11 14 16 17 14 13 10 11 11 12 9 9 9 7 6 11 12 8 9 8 8 10 9 10 11 12 11 10 10
15 13 12 12 13 13 12 12 12 15 12 15 13 10 9 7 11 10 10 11 10 10 9 6 7 5 2 2 7 9 9 9 8 12 10 10 9 8
11 12 13 14 13 12 12 11 12 13 13 14 10 9 8 10 11 11 10 10 10 10 9 9 11 10 11 12 4 12 10 8 10 10 9 10 9 9
9 11 13 14 14 12 11 11 11 12 11 11 10 9 10 12 10 10 11 12 11 8 9 9 11 12 13 12 6 4 18 10 11 11 10 6 6 12
11 12 12 13 13 13 11 11 12 12 10 10 10 8 9 7 8 10 10 14 14 9 11 11 12 11 4 7 6 6 5 17 12 11 11 8 6 6
10 12 12 13 13 12 12 11 10 10 10 10 10 8 6 5 7 8 9 10 10 9 9 6 8 9 6 6 8 11 7 7 13 15 12 6 7 7
11 11 12 12 12 12 12 11 6 9 10 10 9 6 6 6 7 7 8 9 8 8 9 8 7 6 5 5 9 9 10 12 7 8 6 9 8 7
Wind_Direction
279 265 261 271 259 242 239 239 252 266 261 236 244 216 221 211 213 205 208 214 212 214 212 212 212 216 218 217 211 207 204 200 196 195 190 186 180 172
292 276 267 255 257 256 249 245 242 258 270 205 220 222 214 215 213 207 211 208 212 214 213 214 212 215 216 217 215 211 207 201 198 196 194 192 188 183
295 279 271 265 266 248 230 249 252 248 262 269 235 220 212 208 204 210 203 204 213 215 216 214 216 215 217 215 214 212 210 207 203 198 194 193 193 191
305 301 281 282 265 255 246 238 227 245 257 270 260 234 217 212 212 205 208 211 208 215 214 217 218 218 219 219 216 213 210 209 208 206 200 196 194 191
283 284 287 286 276 262 261 262 257 245 238 259 265 230 221 186 182 215 207 210 208 212 217 218 218 219 218 219 218 215 211 207 206 208 209 203 196 191
288 279 277 276 274 275 266 264 263 256 255 250 257 255 225 211 198 201 210 204 208 208 221 218 218 218 219 219 219 214 211 209 206 207 210 211 204 194
290 284 281 272 268 269 269 265 257 254 251 254 258 247 225 222 213 180 215 204 221 209 209 211 206 213 217 221 218 211 210 209 207 204 204 207 207 203
284 285 286 283 279 273 273 273 263 256 254 247 247 247 246 223 226 213 199 195 225 197 200 216 202 214 214 212 209 209 206 210 209 206 204 206 204 201
285 284 282 278 280 280 280 276 272 267 255 250 251 244 248 235 207 210 206 209 224 150 191 220 202 223 208 211 210 208 209 205 206 206 203 204 202 203
287 286 284 284 281 285 286 281 270 261 256 254 249 253 247 245 224 219 213 221 231 176 185 210 190 221 208 208 210 210 209 206 205 202 201 203 202 200
286 284 283 282 282 281 277 276 276 272 265 258 253 253 251 244 237 225 224 210 227 219 194 199 190 205 203 208 208 212 209 206 206 203 199 200 200 199
284 284 282 282 282 280 273 270 270 266 266 263 257 258 254 249 242 220 210 221 222 232 192 202 161 150 203 214 202 207 207 209 204 204 202 199 199 194
281 283 284 289 289 288 285 283 272 270 264 260 256 250 242 240 241 230 215 214 218 228 175 187 201 186 185 116 202 202 198 200 195 198 204 202 199 189
285 281 280 285 285 283 280 275 278 280 276 263 247 239 237 241 238 234 231 215 225 229 200 187 195 192 199 160 181 198 204 194 191 188 190 199 201 200
273 272 276 280 281 288 293 286 285 274 277 266 252 245 231 227 234 233 234 233 224 230 199 196 199 187 204 215 164 195 184 199 197 185 185 190 192 188
268 267 263 268 270 269 276 273 264 257 264 268 265 244 234 222 216 219 226 223 220 215 212 197 201 197 204 216 165 169 201 192 190 191 184 184 186 189
283 280 268 252 255 256 255 249 252 264 259 270 253 242 239 218 211 207 206 206 212 206 190 184 195 197 198 183 190 188 190 203 200 187 177 183 188 187
291 285 286 290 275 267 258 256 255 259 259 273 247 244 232 238 204 200 200 206 205 205 179 170 150 129 110 8 206 180 182 189 183 187 185 182 184 181
316 305 295 288 281 270 263 257 256 259 260 272 241 236 234 229 207 195 192 198 202 200 179 169 176 180 186 208 145 210 176 171 165 176 183 189 180 174
309 304 302 301 298 275 261 254 257 263 262 271 273 247 240 219 198 203 195 197 198 183 172 177 189 194 202 202 163 175 179 163 172 170 168 130 108 143
315 310 307 301 294 278 261 250 247 256 259 270 266 251 248 209 207 206 199 196 191 177 182 188 196 192 141 95 122 149 160 183 174 163 158 146 136 139
316 314 313 313 313 318 289 252 242 240 253 254 257 254 238 219 217 191 188 185 191 182 187 161 142 140 145 166 169 155 148 142 148 148 151 109 150 169
323 321 318 320 321 323 326 334 250 242 239 241 241 232 206 206 202 193 184 186 179 158 149 145 147 160 166 172 153 153 150 141 135 124 93 100 107 108